Location: Foulognes
(49.1413°N, 0.8183°W)
Time: 02:42:55
(UTC+00:00)

Cosmos 1459 Rocket - Pass Details

Date: 21 October 2019
Orbit: 938 x 999 km, 83.0° (Epoch: 14 November)

Event Time Altitude Azimuth Distance (km) Brightness Sun altitude
Rises 18:34:59 0° 353° (N) 3,660 7.1 -15.8°
Reaches altitude 10° 18:37:33 10° 358° (N) 2,719 6.4 -16.2°
Maximum altitude 18:43:40 56° 76° (ENE) 1,156 4.0 -17.2°
Drops below altitude 10° 18:49:50 10° 154° (SSE) 2,741 6.1 -18.3°
Sets 18:52:26 0° 159° (SSE) 3,693 6.8 -18.7°
